Hourly Data Report for November 11, 2017

All times are specified in Local Standard Time (LST). Add 1 hour to adjust for Daylight Saving Time where and when it is observed.

SUDBURY A
ONTARIO

46°37'32.000" N
80°47'52.000" W
348.40 m
6068153
71730
YSB

Download Data

Hourly Data (November 2017)
Hourly Data Report for November 11, 2017
Temp Definition
°C
Dew Point Temp Definition
°C
Rel Hum Definition
%
Wind Dir Definition
10's deg

Wind Spd Definition
km/h
Visibility Definition
km
Stn Press Definition
kPa
Hmdx Definition


Wind Chill Definition


Weather Definition


TIME
00:00 Legend Double Dagger -12.9 -14.6 87 30 9 24.1 99.27   -18 LegendNANA
01:00 Legend Double Dagger -12.2 -13.8 88 36 1 24.1 99.26   -13 Mostly Cloudy
02:00 Legend Double Dagger -11.0 -12.9 86 14 5 24.1 99.21   -14 LegendNANA
03:00 Legend Double Dagger -11.3 -13.0 88 14 9 24.1 99.20   -16 LegendNANA
04:00 Legend Double Dagger -12.2 -13.7 88 16 10 24.1 99.27   -18 Mostly Cloudy
05:00 Legend Double Dagger -12.8 -14.4 88 16 10 24.1 99.29   -19 LegendNANA
06:00 Legend Double Dagger -12.9 -14.4 89 14 10 24.1 99.24   -19 LegendNANA
07:00 Legend Double Dagger -12.8 -14.4 88 15 14 24.1 99.23   -20 Mainly Clear
08:00 Legend Double Dagger -11.8 -13.4 88 13 18 32.2 99.19   -20 LegendNANA
09:00 Legend Double Dagger -10.1 -11.6 89 14 22 32.2 99.17   -18 LegendNANA
10:00 Legend Double Dagger -8.8 -10.3 89 13 23 32.2 99.07   -17 Cloudy
11:00 Legend Double Dagger -7.4 -9.1 88 14 23 32.2 98.98   -15 LegendNANA
12:00 Legend Double Dagger -5.2 -7.7 83 15 25 32.2 98.85   -13 LegendNANA
13:00 Legend Double Dagger -3.8 -7.2 78 17 21 32.2 98.77   -10 Cloudy
14:00 Legend Double Dagger -2.5 -7.2 70 17 30 32.2 98.64   -10 LegendNANA
15:00 Legend Double Dagger -2.4 -7.3 69 18 23 32.2 98.56   -9 LegendNANA
16:00 Legend Double Dagger -2.6 -10.1 56 18 27 32.2 98.51   -10 Cloudy
17:00 Legend Double Dagger -2.6 -9.6 59 19 30 32.2 98.52   -10 LegendNANA
18:00 Legend Double Dagger -2.7 -9.5 60 17 26 24.1 98.50   -10 LegendNANA
19:00 Legend Double Dagger -3.3 -9.1 65 16 18 24.1 98.47   -9 Cloudy
20:00 Legend Double Dagger -4.7 -6.5 87 15 18 2.4 98.44   -11 Snow
21:00 Legend Double Dagger -5.0 -6.4 90 15 18 4.0 98.38   -11 Snow
22:00 Legend Double Dagger -5.1 -6.4 90 13 21 4.0 98.35   -12 Snow
23:00 Legend Double Dagger -4.8 -6.0 91 13 19 4.0 98.33   -11 Snow

Notes on Data Quality.

Legend

  • E = Estimated
  • M = Missing
  • NA = Not Available
  • ‡ = Partner data that is not subject to review by the National Climate Archives
Date modified: